星链-2398 (STARLINK-2398 )

导读 | 星芒AI

STARLINK-2398 是 SpaceX Starlink 卫星互联网项目中的第 2398 颗卫星,属于低轨卫星群的一部分。该卫星旨在为全球用户提供高速、低延迟的互联网服务,尤其关注网络覆盖不足的地区。它采用先进的推进和通信技术,具备自动避撞功能,以确保轨道安全。STARLINK-2398 于近期由猎鹰 9 号火箭发射入轨,加入 Starlink 群体,进一步扩展其全球网络覆盖能力,提升用户连接体验。

基本信息
目录编号:
47918
目录名称:
STARLINK-2398
国际标识:
2021-021BL
轨道中心:
EARTH
卫星名称:
星链-2398
卫星全名:
星链-2398 (STARLINK-2398 )
卫星状态:
已陨落 最后检测时间 2025-02-12
发射日期:
2021-03-14 UTC
国别 :
美国 (US)
星等 :
--
轨道信息
数据来源 国际轨道数据
星历时间: 2025-02-12T12:56:08+0800
轨道信息已过期308天
半长轴: 6570.116km
偏心率: 0.000568
轨道倾角: 53.036°
近地点辐角 314.536°
升交点赤经 191.772°
平近点角 169.455°
近地点: 188.249km
远地点: 195.713km
周期: 88.332分钟
每日圈数: 16.30209
详细信息
固有亮度:
5
最大亮度:
2.5
卫星平台:
Starlink V1.0
覆盖范围:
全球
运营商:
太空探索技术公司
运营商所在国:
美国
制造商(研发单位):
太空探索技术公司
制造商所在国:
美国
使用方式:
暂无
卫星简介
星链(Starlink)计划是由太空探索技术公司(SpaceX)提出的一个巨型低轨卫星互联网星座项目,计划在2019年至2024年间在太空搭建由约1.2万颗卫星组成的“星链”网络,其中1584颗将部署在地球上空550千米处的近地轨道,并从2020年开始工作。该卫星仍在工作。